SCP
0 0 -0 -0 -0 -0 -0 -0 -0 -0 -0 -1 0 0 0 0 0 0 0 0 0 0 0 0 0 0 0 0 0 -0 -0 -0 -0 -0 -0 -0 -0 -0 -0 0 -0 -0 -0
0 0 0 -0 -0 -0 -0 -0 -0 -0 -0 -0 0 0 0 0 0 0 0 0 0 0 0 -0 0 0 0 0 0 -0 -0 -0 -0 -0 -0 -0 -0 -0 -0 -0 -0 -0 -0
0 0 0 0 0 0 0 -0 -0 -0 -0 -0 -0 0 0 0 0 0 0 0 0 0 -0 -0 -0 0 0 0 0 -0 -0 -0 -0 -0 -0 -0 -0 -0 -0 -0 -0 -0 -0
0 0 0 0 -0 0 -0 -0 -0 -0 -0 -0 -0 -0 0 0 0 0 0 0 0 0 0 -0 -0 -0 0 0 0 0 -0 0 0 0 0 -0 -0 -0 -0 -0 -0 -0 -0
0 0 0 0 -0 0 0 -0 -0 -0 -0 -0 -0 -0 -0 0 0 0 0 0 0 0 0 0 -0 -0 0 0 0 0 0 -0 -0 0 -0 -0 0 -0 -0 -0 -0 -0 -0
-0 0 0 0 0 0 0 0 0 0 -0 -0 -0 -0 -0 -0 0 0 0 0 0 0 0 0 0 -0 -0 0 0 0 -0 -0 -0 0 -0 0 0 -0 0 -0 -0 -0 -0
0 0 0 0 0 0 0 0 0 0 0 0 0 -0 -0 0 0 0 0 -0 0 0 0 -0 0 0 -0 0 0 0 -0 -0 -0 0 0 0 0 -0 -0 -0 -0 -0 -0
0 0 0 0 0 0 0 0 0 0 0 0 0 0 0 0 0 0 0 -0 0 0 0 -0 -0 -0 -0 0 0 0 -0 -0 -0 0 0 0 0 -0 -0 -0 -0 -0 -0
-0 -0 0 0 0 0 0 0 0 0 0 0 0 0 0 0 0 0 0 0 0 0 -0 0 -0 0 -0 0 0 0 -0 0 0 0 0 0 0 0 -0 -0 -0 -0 -0
-0 0 -0 0 0 0 0 0 0 0 0 0 0 0 0 0 0 0 0 0 0 0 0 -0 0 -0 0 0 0 0 0 0 0 0 0 0 -0 0 -0 -0 -0 -0 -0
0 0 -0 0 0 0 0 0 0 0 0 0 0 0 0 0 0 0 0 0 0 0 -0 0 0 0 0 0 0 0 -0 0 -0 0 0 0 -0 0 -0 -0 -0 -0 -0
0 0 0 -0 0 0 0 0 0 -0 -0 0 0 0 0 0 0 0 0 0 0 0 0 0 0 0 0 0 0 0 0 0 0 0 0 0 -0 0 0 -0 -0 -0 -0
0 0 0 -0 -0 0 0 0 0 0 0 -0 0 0 0 0 0 0 0 0 0 0 0 0 0 0 0 0 0 0 0 0 0 0 0 0 -0 0 0 -0 -0 -0 -0
0 0 0 0 -0 -0 0 -0 0 0 0 0 0 0 0 0 0 0 0 0 0 0 0 0 0 0 0 0 0 0 0 0 0 0 0 0 -0 0 0 0 -0 -0 -0
0 0 0 0 -0 -0 -0 0 0 0 0 0 0 0 0 0 0 0 0 0 0 0 0 0 0 0 0 0 0 0 0 0 0 0 0 0 0 0 0 0 0 -0 -0
0 0 0 0 0 -0 -0 -0 -0 0 0 0 0 0 0 0 0 0 0 0 0 0 0 0 0 0 0 0 0 0 0 0 0 0 0 0 0 0 0 0 0 -0 -0
0 0 0 0 0 -0 -0 -0 -0 -0 0 0 0 0 0 0 0 0 0 0 0 0 0 0 0 0 0 0 0 0 0 0 0 0 0 0 0 0 0 0 0 0 -0
0 0 0 0 0 -0 -0 -0 -0 -0 0 0 0 0 0 0 0 0 0 0 0 0 0 0 0 0 0 0 0 0 0 0 0 0 0 0 0 0 0 0 0 0 0
0 0 0 0 0 -0 -0 -0 -0 -0 0 0 0 0 0 0 0 0 0 0 0 0 0 0 0 0 0 0 0 0 0 0 0 0 0 0 0 0 0 0 0 0 0
0 0 0 0 0 -0 -0 -0 -0 -0 0 0 0 0 -0 0 0 0 0 0 0 0 0 0 0 0 0 0 0 0 0 0 0 0 0 0 0 -0 -0 0 0 0 0
0 0 0 0 0 0 -0 -0 -0 -0 0 0 0 0 0 -0 0 0 0 0 0 0 0 0 0 0 0 0 0 0 0 0 0 0 0 0 0 0 0 0 0 0 0
0 0 0 0 0 0 -0 -0 -0 -0 -0 0 0 0 0 -0 0 0 0 0 0 0 0 0 0 0 0 0 0 0 0 0 0 0 0 0 0 0 0 0 0 0 0
0 0 0 0 0 0 0 -0 -0 -0 -0 0 0 0 0 0 -0 0 0 0 0 0 0 0 0 0 0 0 0 0 0 0 0 0 0 0 0 0 0 0 0 0 0
0 0 0 0 0 0 0 -0 0 0 0 0 0 0 0 0 -0 0 0 0 0 0 0 0 0 0 0 0 0 0 0 0 0 0 0 0 0 0 0 0 0 0 0
0 0 0 0 0 0 -0 -0 0 0 0 0 0 0 0 0 -0 -0 0 0 0 0 0 0 0 0 0 0 0 0 0 0 0 0 0 0 0 0 0 0 0 0 0
0 0 0 0 0 0 0 0 0 0 0 0 0 0 0 0 0 0 0 0 0 0 0 0 0 0 0 0 0 0 0 0 0 0 0 0 0 0 0 0 0 0 0
Wind_Speed_500mb
70 65 64 42 48 38 25 20 12 10 10 10 8 8 7 9 16 15 14 16 20 23 25 25 29 30 25 24 23 21 22 25 31 40 38 33 30 27 28 34 22 19 25
67 65 53 51 44 31 22 18 10 7 8 5 6 10 7 10 15 15 15 19 21 23 22 26 30 28 23 20 20 19 22 29 38 35 28 30 26 22 19 32 25 25 24
67 60 56 49 46 30 25 20 11 3 3 2 8 6 6 13 16 17 17 20 20 18 22 29 28 24 20 19 20 18 23 30 35 28 26 26 22 17 16 16 15 29 24
56 59 60 51 44 29 29 22 15 10 6 6 11 9 7 13 17 24 23 17 16 23 25 27 23 21 21 24 20 18 23 31 28 24 25 21 21 16 15 17 28 27 24
47 48 51 51 46 30 28 26 17 15 13 8 11 11 13 15 20 27 31 24 29 36 27 21 22 20 24 24 20 20 28 29 29 27 23 20 20 17 19 27 28 25 28
47 53 48 51 46 41 30 25 20 15 13 11 13 17 15 10 15 21 21 27 27 24 42 29 25 27 27 24 21 24 33 34 31 24 16 17 22 16 24 30 25 25 21
50 52 54 50 50 45 41 29 24 20 16 11 9 12 14 9 8 9 10 28 19 29 34 34 23 29 27 25 25 32 36 31 28 17 11 16 11 17 23 26 22 22 17
43 49 50 45 46 50 40 35 28 27 22 18 13 12 12 10 15 19 18 15 15 21 28 23 18 27 28 26 30 34 40 34 21 11 6 16 11 19 27 27 23 21 21
39 44 45 49 43 39 50 43 32 30 28 27 19 15 16 18 19 25 23 22 20 21 25 26 30 33 32 31 35 36 37 28 24 17 8 13 9 19 26 24 18 17 20
39 44 50 52 53 50 49 46 36 34 28 27 27 20 15 18 26 24 27 26 21 22 29 18 30 33 27 39 38 36 38 36 17 21 17 12 1 20 26 22 17 21 29
38 43 47 52 55 55 47 47 47 37 30 26 24 26 26 17 19 23 30 27 22 20 20 20 29 33 37 41 42 40 38 20 15 23 18 13 3 13 26 28 23 24 27
39 43 46 50 50 53 46 47 43 55 44 34 25 22 25 19 16 18 12 21 10 13 16 23 34 35 42 49 46 44 32 24 10 18 15 8 5 17 31 30 26 24 26
35 40 44 47 48 50 47 46 41 38 44 49 30 23 23 20 15 17 13 13 18 18 16 29 39 39 44 52 56 50 31 28 24 16 14 5 4 25 31 31 31 26 27
33 37 40 44 46 48 45 43 42 39 41 43 43 27 21 23 18 10 16 12 23 28 24 25 29 35 40 54 59 49 33 30 21 19 13 8 6 18 24 27 30 23 36
31 34 39 40 45 47 44 44 42 39 40 39 41 37 27 20 22 15 14 18 19 38 41 40 38 40 46 53 66 50 40 25 24 18 17 15 7 17 24 26 33 33 34
29 31 37 39 42 46 46 45 41 38 39 36 37 40 31 24 21 21 11 21 25 32 54 51 45 42 44 49 46 44 40 32 20 22 21 20 11 20 23 28 27 37 35
30 30 35 38 42 46 47 46 39 37 38 33 32 40 36 26 21 24 13 14 30 35 35 55 54 42 50 46 46 42 42 31 27 22 24 17 19 18 23 31 26 27 36
31 31 33 37 42 48 47 45 40 36 35 32 31 36 39 33 24 19 22 14 20 40 31 58 61 55 49 50 47 42 42 33 32 27 24 19 15 18 27 31 30 33 31
35 36 35 35 40 46 49 43 40 36 32 32 30 29 44 35 31 24 23 20 16 23 37 43 72 27 55 53 47 43 46 37 29 26 27 21 17 20 14 35 38 37 34
40 39 36 36 40 41 47 44 40 36 32 30 29 31 36 42 32 26 24 21 21 18 29 41 62 62 58 58 47 47 58 31 27 32 33 26 21 14 15 35 33 42 34
41 38 37 34 35 42 47 45 42 39 36 30 27 31 31 45 36 35 24 22 21 18 24 34 35 77 66 72 58 40 55 48 38 36 35 37 31 31 24 27 23 42 43
41 37 31 31 30 37 38 39 36 36 35 31 25 28 29 37 44 29 26 24 21 18 20 25 40 21 66 83 79 57 37 44 50 43 43 43 40 31 31 25 23 26 26
40 35 30 27 30 32 31 33 34 32 30 29 28 25 29 30 45 31 28 23 19 19 21 22 18 31 56 70 77 64 36 31 43 40 39 46 42 40 32 32 34 32 33
35 31 25 24 26 31 31 32 30 33 34 33 29 26 28 28 29 41 30 23 22 17 22 20 22 23 41 39 85 94 73 45 53 28 39 47 40 45 40 36 39 34 36
32 30 22 22 26 27 23 27 28 32 32 31 27 26 25 24 27 44 29 28 22 20 17 26 29 21 31 38 56 84 81 64 62 43 34 55 40 48 47 43 37 38 37
27 29 26 21 25 26 26 25 27 31 31 30 28 28 26 29 27 26 30 28 22 21 18 25 39 26 22 43 59 71 79 86 78 74 57 56 62 46 53 46 44 41 38
Wind_Direction_500mb
1 358 360 11 11 10 14 15 1 341 313 276 260 261 271 217 203 199 198 181 179 179 165 156 151 149 147 138 138 137 135 137 140 139 134 126 120 114 101 85 90 105 107
352 3 359 8 9 7 9 20 345 15 347 264 231 259 265 205 193 201 194 176 171 173 169 161 157 154 151 147 142 136 134 137 139 137 131 131 122 116 106 125 151 108 127
353 6 360 3 8 12 9 358 335 356 83 140 180 237 243 205 195 198 200 183 181 181 173 162 164 169 169 158 150 138 139 142 141 134 111 114 118 109 111 138 121 123 126
1 1 359 356 5 11 20 11 347 340 287 197 177 188 223 216 210 213 185 198 175 164 167 163 165 172 174 160 154 143 146 147 141 111 116 124 110 96 86 104 120 128 115
10 6 4 359 1 357 8 18 2 343 342 302 231 193 208 201 222 209 190 201 207 169 170 171 177 185 168 164 158 149 148 138 120 111 126 133 117 98 91 108 119 119 123
6 7 14 2 2 359 347 357 360 6 348 346 323 281 207 217 233 240 220 203 188 214 175 182 184 182 174 171 163 152 140 126 124 137 138 138 128 103 112 127 140 135 139
7 5 10 3 2 1 353 334 337 340 351 350 314 307 302 247 244 237 181 193 192 209 193 167 182 184 179 175 165 152 138 126 121 131 159 147 163 124 124 137 147 147 149
4 4 3 8 3 358 356 344 330 322 330 325 331 298 278 262 237 208 192 184 193 220 196 217 247 195 187 182 169 156 146 137 165 154 231 142 153 139 142 150 157 149 144
6 5 3 5 10 0 355 357 342 323 317 315 309 306 292 260 238 215 180 188 199 227 235 250 254 190 188 187 173 163 152 143 139 169 142 156 134 154 153 156 158 156 161
5 5 3 3 2 7 354 353 353 336 315 312 312 294 285 277 263 233 208 209 229 246 257 254 190 198 216 187 177 168 154 141 132 169 149 202 135 155 165 158 161 150 160
360 5 3 0 359 0 359 356 345 346 344 317 311 302 290 277 284 269 235 226 245 235 224 211 195 208 188 189 179 168 157 155 161 179 227 227 169 169 173 172 169 162 164
356 358 3 360 1 359 358 355 355 340 342 344 331 328 302 292 282 267 259 235 244 213 220 212 200 208 194 191 181 172 162 164 186 178 239 227 175 171 177 176 175 171 180
351 352 358 356 360 358 356 353 351 350 346 336 340 332 332 315 276 257 256 232 245 221 213 212 213 204 202 195 184 179 169 152 199 217 210 211 162 167 183 180 182 179 174
348 349 354 356 358 358 355 349 348 346 343 338 341 337 323 326 316 264 252 232 224 205 195 203 198 198 208 202 195 187 189 174 193 220 210 232 154 172 189 187 184 183 170
341 344 348 353 356 355 353 347 345 343 340 344 336 335 333 319 319 297 230 234 234 219 198 196 209 201 215 208 204 191 173 165 210 223 224 218 177 178 196 187 193 181 181
332 334 341 346 349 352 350 348 344 337 338 338 336 332 326 331 314 303 264 232 231 235 208 202 202 213 220 212 221 179 173 174 194 213 203 206 199 174 194 197 202 195 189
317 322 334 336 341 347 345 344 338 332 334 334 333 331 333 321 320 315 308 254 236 237 228 211 201 206 217 210 213 198 182 185 177 213 187 231 189 180 186 195 185 186 195
309 314 321 328 333 340 341 339 334 327 329 326 330 328 327 329 312 306 326 299 238 233 235 218 211 214 210 212 210 202 204 188 205 213 220 202 195 193 180 194 195 195 201
303 308 309 320 326 334 335 333 331 326 324 322 325 330 326 335 323 308 310 324 284 247 234 230 209 212 208 209 215 219 216 198 210 204 205 214 201 191 200 198 197 205 203
295 298 302 313 322 329 329 326 326 326 321 320 321 323 332 328 332 306 304 323 313 269 249 216 220 225 215 211 201 230 217 207 217 214 208 218 215 193 167 227 211 198 206
289 291 292 305 316 324 324 324 323 324 322 318 318 323 332 324 332 332 301 309 323 301 263 234 219 212 220 208 203 205 201 219 214 225 218 206 207 198 203 228 217 206 208
286 285 284 295 314 323 323 321 317 320 321 319 317 323 325 328 327 333 317 307 320 332 286 247 219 200 215 211 205 215 218 220 222 210 221 207 212 205 195 208 216 210 217
294 292 285 292 319 320 321 320 319 320 322 323 320 322 321 329 326 333 329 296 313 341 324 254 228 178 206 218 211 202 207 215 212 218 217 203 209 209 208 196 198 207 211
303 305 288 298 311 318 320 320 323 319 323 323 320 319 327 328 325 322 336 313 304 326 345 299 247 201 187 199 213 210 206 205 193 203 217 206 206 209 221 217 208 203 213
310 306 302 307 312 312 321 320 321 321 320 319 320 323 326 333 314 317 335 324 298 308 329 348 299 248 196 194 192 209 218 223 210 194 207 208 214 212 219 218 221 216 205
316 314 319 305 315 320 317 318 318 320 321 319 323 322 335 332 334 334 333 323 313 302 315 326 323 284 224 209 214 217 224 215 217 217 218 208 209 211 215 216 218 229 218
Wind_Speed_850mb
70 65 64 42 48 38 25 20 12 10 10 10 8 8 7 9 16 15 14 16 20 23 25 25 29 30 25 24 23 21 22 25 31 40 38 33 30 27 28 34 22 19 25
67 65 53 51 44 31 22 18 10 7 8 5 6 10 7 10 15 15 15 19 21 23 22 26 30 28 23 20 20 19 22 29 38 35 28 30 26 22 19 32 25 25 24
67 60 56 49 46 30 25 20 11 3 3 2 8 6 6 13 16 17 17 20 20 18 22 29 28 24 20 19 20 18 23 30 35 28 26 26 22 17 16 16 15 29 24
56 59 60 51 44 29 29 22 15 10 6 6 11 9 7 13 17 24 23 17 16 23 25 27 23 21 21 24 20 18 23 31 28 24 25 21 21 16 15 17 28 27 24
47 48 51 51 46 30 28 26 17 15 13 8 11 11 13 15 20 27 31 24 29 36 27 21 22 20 24 24 20 20 28 29 29 27 23 20 20 17 19 27 28 25 28
47 53 48 51 46 41 30 25 20 15 13 11 13 17 15 10 15 21 21 27 27 24 42 29 25 27 27 24 21 24 33 34 31 24 16 17 22 16 24 30 25 25 21
50 52 54 50 50 45 41 29 24 20 16 11 9 12 14 9 8 9 10 28 19 29 34 34 23 29 27 25 25 32 36 31 28 17 11 16 11 17 23 26 22 22 17
43 49 50 45 46 50 40 35 28 27 22 18 13 12 12 10 15 19 18 15 15 21 28 23 18 27 28 26 30 34 40 34 21 11 6 16 11 19 27 27 23 21 21
39 44 45 49 43 39 50 43 32 30 28 27 19 15 16 18 19 25 23 22 20 21 25 26 30 33 32 31 35 36 37 28 24 17 8 13 9 19 26 24 18 17 20
39 44 50 52 53 50 49 46 36 34 28 27 27 20 15 18 26 24 27 26 21 22 29 18 30 33 27 39 38 36 38 36 17 21 17 12 1 20 26 22 17 21 29
38 43 47 52 55 55 47 47 47 37 30 26 24 26 26 17 19 23 30 27 22 20 20 20 29 33 37 41 42 40 38 20 15 23 18 13 3 13 26 28 23 24 27
39 43 46 50 50 53 46 47 43 55 44 34 25 22 25 19 16 18 12 21 10 13 16 23 34 35 42 49 46 44 32 24 10 18 15 8 5 17 31 30 26 24 26
35 40 44 47 48 50 47 46 41 38 44 49 30 23 23 20 15 17 13 13 18 18 16 29 39 39 44 52 56 50 31 28 24 16 14 5 4 25 31 31 31 26 27
33 37 40 44 46 48 45 43 42 39 41 43 43 27 21 23 18 10 16 12 23 28 24 25 29 35 40 54 59 49 33 30 21 19 13 8 6 18 24 27 30 23 36
31 34 39 40 45 47 44 44 42 39 40 39 41 37 27 20 22 15 14 18 19 38 41 40 38 40 46 53 66 50 40 25 24 18 17 15 7 17 24 26 33 33 34
29 31 37 39 42 46 46 45 41 38 39 36 37 40 31 24 21 21 11 21 25 32 54 51 45 42 44 49 46 44 40 32 20 22 21 20 11 20 23 28 27 37 35
30 30 35 38 42 46 47 46 39 37 38 33 32 40 36 26 21 24 13 14 30 35 35 55 54 42 50 46 46 42 42 31 27 22 24 17 19 18 23 31 26 27 36
31 31 33 37 42 48 47 45 40 36 35 32 31 36 39 33 24 19 22 14 20 40 31 58 61 55 49 50 47 42 42 33 32 27 24 19 15 18 27 31 30 33 31
35 36 35 35 40 46 49 43 40 36 32 32 30 29 44 35 31 24 23 20 16 23 37 43 72 27 55 53 47 43 46 37 29 26 27 21 17 20 14 35 38 37 34
40 39 36 36 40 41 47 44 40 36 32 30 29 31 36 42 32 26 24 21 21 18 29 41 62 62 58 58 47 47 58 31 27 32 33 26 21 14 15 35 33 42 34
41 38 37 34 35 42 47 45 42 39 36 30 27 31 31 45 36 35 24 22 21 18 24 34 35 77 66 72 58 40 55 48 38 36 35 37 31 31 24 27 23 42 43
41 37 31 31 30 37 38 39 36 36 35 31 25 28 29 37 44 29 26 24 21 18 20 25 40 21 66 83 79 57 37 44 50 43 43 43 40 31 31 25 23 26 26
40 35 30 27 30 32 31 33 34 32 30 29 28 25 29 30 45 31 28 23 19 19 21 22 18 31 56 70 77 64 36 31 43 40 39 46 42 40 32 32 34 32 33
35 31 25 24 26 31 31 32 30 33 34 33 29 26 28 28 29 41 30 23 22 17 22 20 22 23 41 39 85 94 73 45 53 28 39 47 40 45 40 36 39 34 36
32 30 22 22 26 27 23 27 28 32 32 31 27 26 25 24 27 44 29 28 22 20 17 26 29 21 31 38 56 84 81 64 62 43 34 55 40 48 47 43 37 38 37
27 29 26 21 25 26 26 25 27 31 31 30 28 28 26 29 27 26 30 28 22 21 18 25 39 26 22 43 59 71 79 86 78 74 57 56 62 46 53 46 44 41 38
Wind_Direction_850mb
1 358 360 11 11 10 14 15 1 341 313 276 260 261 271 217 203 199 198 181 179 179 165 156 151 149 147 138 138 137 135 137 140 139 134 126 120 114 101 85 90 105 107
352 3 359 8 9 7 9 20 345 15 347 264 231 259 265 205 193 201 194 176 171 173 169 161 157 154 151 147 142 136 134 137 139 137 131 131 122 116 106 125 151 108 127
353 6 360 3 8 12 9 358 335 356 83 140 180 237 243 205 195 198 200 183 181 181 173 162 164 169 169 158 150 138 139 142 141 134 111 114 118 109 111 138 121 123 126
1 1 359 356 5 11 20 11 347 340 287 197 177 188 223 216 210 213 185 198 175 164 167 163 165 172 174 160 154 143 146 147 141 111 116 124 110 96 86 104 120 128 115
10 6 4 359 1 357 8 18 2 343 342 302 231 193 208 201 222 209 190 201 207 169 170 171 177 185 168 164 158 149 148 138 120 111 126 133 117 98 91 108 119 119 123
6 7 14 2 2 359 347 357 360 6 348 346 323 281 207 217 233 240 220 203 188 214 175 182 184 182 174 171 163 152 140 126 124 137 138 138 128 103 112 127 140 135 139
7 5 10 3 2 1 353 334 337 340 351 350 314 307 302 247 244 237 181 193 192 209 193 167 182 184 179 175 165 152 138 126 121 131 159 147 163 124 124 137 147 147 149
4 4 3 8 3 358 356 344 330 322 330 325 331 298 278 262 237 208 192 184 193 220 196 217 247 195 187 182 169 156 146 137 165 154 231 142 153 139 142 150 157 149 144
6 5 3 5 10 0 355 357 342 323 317 315 309 306 292 260 238 215 180 188 199 227 235 250 254 190 188 187 173 163 152 143 139 169 142 156 134 154 153 156 158 156 161
5 5 3 3 2 7 354 353 353 336 315 312 312 294 285 277 263 233 208 209 229 246 257 254 190 198 216 187 177 168 154 141 132 169 149 202 135 155 165 158 161 150 160
360 5 3 0 359 0 359 356 345 346 344 317 311 302 290 277 284 269 235 226 245 235 224 211 195 208 188 189 179 168 157 155 161 179 227 227 169 169 173 172 169 162 164
356 358 3 360 1 359 358 355 355 340 342 344 331 328 302 292 282 267 259 235 244 213 220 212 200 208 194 191 181 172 162 164 186 178 239 227 175 171 177 176 175 171 180
351 352 358 356 360 358 356 353 351 350 346 336 340 332 332 315 276 257 256 232 245 221 213 212 213 204 202 195 184 179 169 152 199 217 210 211 162 167 183 180 182 179 174
348 349 354 356 358 358 355 349 348 346 343 338 341 337 323 326 316 264 252 232 224 205 195 203 198 198 208 202 195 187 189 174 193 220 210 232 154 172 189 187 184 183 170
341 344 348 353 356 355 353 347 345 343 340 344 336 335 333 319 319 297 230 234 234 219 198 196 209 201 215 208 204 191 173 165 210 223 224 218 177 178 196 187 193 181 181
332 334 341 346 349 352 350 348 344 337 338 338 336 332 326 331 314 303 264 232 231 235 208 202 202 213 220 212 221 179 173 174 194 213 203 206 199 174 194 197 202 195 189
317 322 334 336 341 347 345 344 338 332 334 334 333 331 333 321 320 315 308 254 236 237 228 211 201 206 217 210 213 198 182 185 177 213 187 231 189 180 186 195 185 186 195
309 314 321 328 333 340 341 339 334 327 329 326 330 328 327 329 312 306 326 299 238 233 235 218 211 214 210 212 210 202 204 188 205 213 220 202 195 193 180 194 195 195 201
303 308 309 320 326 334 335 333 331 326 324 322 325 330 326 335 323 308 310 324 284 247 234 230 209 212 208 209 215 219 216 198 210 204 205 214 201 191 200 198 197 205 203
295 298 302 313 322 329 329 326 326 326 321 320 321 323 332 328 332 306 304 323 313 269 249 216 220 225 215 211 201 230 217 207 217 214 208 218 215 193 167 227 211 198 206
289 291 292 305 316 324 324 324 323 324 322 318 318 323 332 324 332 332 301 309 323 301 263 234 219 212 220 208 203 205 201 219 214 225 218 206 207 198 203 228 217 206 208
286 285 284 295 314 323 323 321 317 320 321 319 317 323 325 328 327 333 317 307 320 332 286 247 219 200 215 211 205 215 218 220 222 210 221 207 212 205 195 208 216 210 217
294 292 285 292 319 320 321 320 319 320 322 323 320 322 321 329 326 333 329 296 313 341 324 254 228 178 206 218 211 202 207 215 212 218 217 203 209 209 208 196 198 207 211
303 305 288 298 311 318 320 320 323 319 323 323 320 319 327 328 325 322 336 313 304 326 345 299 247 201 187 199 213 210 206 205 193 203 217 206 206 209 221 217 208 203 213
310 306 302 307 312 312 321 320 321 321 320 319 320 323 326 333 314 317 335 324 298 308 329 348 299 248 196 194 192 209 218 223 210 194 207 208 214 212 219 218 221 216 205
316 314 319 305 315 320 317 318 318 320 321 319 323 322 335 332 334 334 333 323 313 302 315 326 323 284 224 209 214 217 224 215 217 217 218 208 209 211 215 216 218 229 218